{"data":{"norad_id":58772,"epoch":"2026-05-25T01:33:01.456416Z","epoch_age_seconds":76257,"freshness":"FRESH","line1":"1 58772U 24011H   26145.06460019  .00001866  00000+0  75135-4 0  9996","line2":"2 58772  53.1607  18.9181 0001244  84.8052 275.3091 15.30196846131958","mean_motion":15.30196846,"eccentricity":0.0001244,"inclination_deg":53.1607,"raan_deg":18.9181,"arg_perigee_deg":84.8052,"mean_anomaly_deg":275.3091,"bstar":7.5135e-5,"rev_number":13195,"period_min":94.105539673815,"perigee_km":474.37192854204,"apogee_km":476.07704487993,"semimajor_km":6853.361486711,"source":"CELESTRAK","updated_at":"2026-05-25T13:38:18.745374Z"}}